SCP
0 0 0 0 0 0 0 0 0 0 0 0 0 -0 -0 0 0 0 0 0 0 0 0 0 0 0 0 0 0 0 0 0 0 0 0 0 0 0 0 0 0 0 0 0
0 0 0 0 0 0 0 0 0 0 0 -0 -0 -0 -0 0 0 0 0 0 0 0 0 0 0 0 0 0 0 0 0 0 0 0 0 0 0 0 0 0 0 0 0 0
0 0 0 0 0 0 0 0 0 0 0 0 -0 -0 0 0 0 0 0 0 0 0 0 0 0 0 0 0 0 0 0 0 0 0 0 0 0 0 0 0 0 0 0 0
0 0 0 0 0 0 0 0 0 0 0 0 0 -0 0 0 0 0 0 0 0 0 0 0 0 0 0 0 0 0 0 0 0 0 0 0 0 0 0 0 0 0 0 0
0 0 0 0 0 0 0 0 0 0 0 0 0 0 -0 0 0 0 0 0 0 0 0 0 0 0 0 0 0 0 0 0 0 0 0 0 0 0 0 0 0 0 0 0
0 0 0 0 0 0 0 0 0 0 0 0 0 0 0 0 0 0 0 0 0 0 0 0 0 0 0 0 0 0 0 0 0 0 0 0 -0 -0 0 0 0 0 0 0
0 0 0 0 0 0 0 0 0 0 0 0 0 0 0 0 0 0 0 0 0 0 0 0 0 0 0 0 0 0 0 0 0 -0 0 0 -0 -0 -0 -0 0 0 -0 -0
0 0 0 0 0 0 0 0 0 0 0 0 0 0 0 0 0 0 0 0 0 0 0 0 0 0 0 0 0 0 0 0 0 -0 -0 0 -0 -0 -0 -0 -0 -0 0 0
0 0 0 0 0 0 0 0 0 0 0 0 0 0 0 0 0 0 0 0 0 0 0 0 0 0 0 0 0 0 0 0 0 -0 -0 -0 -0 -0 -0 -0 -0 -0 -0 -0
0 0 0 0 0 0 0 0 0 0 0 0 0 0 0 0 0 0 0 0 0 0 0 0 0 0 0 0 0 0 0 0 0 -0 -0 -0 0 0 -0 -0 -0 -0 -0 -0
0 0 0 0 0 0 0 0 0 0 0 0 0 0 0 0 0 0 0 0 0 0 0 0 0 0 0 0 0 0 0 0 0 -0 -0 -0 -0 0 -0 -0 -0 -0 -0 -0
0 0 0 0 0 0 0 0 0 0 0 0 0 0 0 0 0 0 0 0 0 0 0 0 0 0 0 0 0 0 0 0 0 0 -0 -0 -0 0 -0 -0 -0 -0 -0 -0
0 0 0 0 0 0 0 0 0 0 0 0 0 0 0 0 0 0 0 0 0 0 0 0 0 0 0 0 0 0 0 0 0 0 0 -0 -0 -0 -0 -0 -0 -0 -0 0
0 0 0 0 0 0 0 0 0 0 0 0 0 0 0 0 0 0 0 0 0 0 0 0 0 0 0 0 0 0 0 0 0 0 0 0 -0 -0 -0 -0 -0 -0 -0 -0
0 0 0 0 0 0 0 0 0 0 0 0 0 0 0 0 0 0 0 0 0 0 0 0 0 0 0 0 0 0 0 0 0 0 0 0 0 -0 0 0 0 0 0 0
0 0 0 0 0 0 0 0 0 0 0 0 0 0 0 0 0 0 0 0 0 0 0 0 0 0 0 0 0 0 0 0 0 0 0 0 0 -0 -0 0 0 0 -0 -0
0 0 0 0 0 0 0 0 0 0 0 0 0 0 0 0 0 0 0 0 0 0 0 0 0 0 0 0 -0 0 0 0 0 0 0 0 0 -0 -0 -0 -0 -0 -0 -0
0 0 0 0 0 0 0 0 0 0 0 0 0 0 0 0 0 0 0 0 0 0 0 0 0 0 0 0 0 0 0 0 0 0 0 0 0 0 -0 -0 -0 -0 -0 -0
0 0 0 0 0 0 0 0 0 0 0 0 0 0 0 0 0 0 0 0 0 0 0 0 0 0 0 0 0 0 0 0 0 0 0 0 0 0 0 0 0 0 0 0
0 0 0 0 0 0 0 0 0 0 0 0 0 0 0 0 0 0 0 0 0 0 0 0 0 0 0 0 0 0 0 0 0 0 0 0 0 0 0 0 0 0 0 0
0 0 0 0 0 0 0 0 0 0 0 0 0 0 0 0 0 0 0 0 0 0 0 0 0 0 0 0 0 0 0 0 0 0 0 0 0 0 0 0 0 0 0 0
0 0 0 0 0 0 0 0 0 0 0 0 0 0 0 0 0 0 0 0 0 0 0 0 0 0 0 0 0 0 0 0 0 0 0 0 0 0 0 0 0 0 0 0
0 0 0 0 0 0 0 0 0 0 0 0 0 0 0 0 0 0 0 0 0 0 0 0 0 0 0 0 0 0 0 0 0 0 0 0 0 0 0 0 0 0 0 0
0 0 0 0 0 0 0 0 0 0 0 0 0 0 0 0 0 0 0 0 0 0 0 0 0 0 0 0 0 0 0 0 0 0 0 0 0 0 0 0 0 0 0 0
0 0 -0 0 0 0 0 0 0 0 0 0 0 0 0 0 0 0 0 0 0 0 0 0 0 0 0 0 0 0 0 0 0 0 0 0 0 0 0 0 0 0 0 0
-0 -0 -0 -0 -0 -0 -0 -0 -0 0 0 0 0 0 0 0 0 0 0 0 0 0 0 0 0 0 0 0 0 0 0 0 0 0 0 0 0 0 0 0 0 0 0 0
Wind_Speed_500mb
8 14 19 28 23 4 2 5 16 10 0 10 23 39 47 46 44 45 47 44 44 37 30 35 31 27 21 23 29 38 44 34 33 36 41 31 29 31 30 25 24 23 9 9
8 23 18 9 12 8 6 9 13 12 3 7 25 50 46 20 13 17 19 25 34 36 36 38 32 26 18 20 26 34 34 29 31 38 32 31 32 31 29 25 21 16 1 9
20 2 15 11 11 13 9 10 5 10 15 5 24 18 10 2 7 12 14 12 13 31 40 42 34 24 16 16 22 28 30 25 28 26 29 31 30 32 28 28 22 10 9 14
16 8 12 13 12 16 10 10 6 3 8 8 12 13 14 6 17 11 11 8 8 22 35 43 35 24 14 13 17 22 27 22 18 19 24 29 29 34 31 30 26 14 16 20
9 19 16 12 8 17 1 8 6 2 1 8 4 7 14 4 8 5 5 6 11 23 38 42 33 23 13 11 13 18 22 17 14 14 18 23 20 23 26 24 44 35 33 49
2 2 6 2 6 2 20 8 4 2 3 6 3 5 11 6 5 3 5 9 18 31 38 35 31 21 13 9 9 14 16 12 9 9 16 18 15 19 20 25 38 36 34 40
5 7 4 7 11 6 5 7 4 5 5 7 4 7 21 10 7 4 13 19 22 33 38 37 30 22 15 8 5 8 11 7 6 8 11 11 13 15 19 21 31 38 39 32
25 15 23 17 8 10 19 7 8 11 5 2 3 13 9 2 4 8 6 20 25 32 37 36 31 24 16 9 5 5 6 5 3 5 12 7 10 11 16 21 23 32 41 34
16 10 2 4 5 5 14 15 3 6 4 4 9 14 23 14 10 13 18 19 32 35 40 38 33 27 20 12 9 7 4 5 11 8 8 9 9 11 13 22 20 25 27 35
12 3 3 5 6 3 8 13 7 3 9 11 7 11 15 6 18 21 21 31 32 35 40 40 37 31 24 16 13 11 5 3 11 15 13 12 11 13 18 23 23 20 26 28
12 7 7 9 21 26 12 11 6 4 6 6 4 8 5 7 6 15 27 31 33 39 45 43 39 34 28 21 16 16 11 1 6 11 21 16 18 14 19 25 26 26 23 25
15 6 11 12 1 6 8 16 19 10 11 5 1 9 5 6 3 5 18 25 29 35 43 42 41 38 33 26 21 19 19 9 4 14 19 19 20 19 24 29 30 30 29 32
17 10 8 1 4 4 17 22 17 5 2 15 11 8 2 6 8 9 8 26 30 37 42 45 46 45 40 34 28 23 25 20 11 16 20 21 24 26 25 28 28 30 29 31
13 8 12 18 4 11 15 35 39 33 10 13 21 12 7 7 9 11 15 20 28 38 47 51 51 50 45 41 36 29 29 31 24 19 18 20 23 26 27 30 33 33 32 30
5 8 9 15 1 7 8 19 43 45 44 27 18 37 37 20 19 21 13 24 29 41 48 53 55 53 52 50 47 39 37 37 35 32 28 20 20 22 27 35 33 35 33 36
3 4 2 6 7 8 9 22 34 46 42 42 25 30 23 38 27 30 27 32 34 35 44 49 54 58 59 60 55 48 43 43 42 40 36 30 30 29 32 36 35 34 34 34
16 10 4 6 3 2 18 38 31 23 29 45 40 50 14 20 24 29 31 36 40 39 36 40 50 61 65 65 60 58 50 48 47 45 41 39 38 38 39 41 41 37 37 40
11 11 5 2 2 14 9 7 29 44 33 43 31 34 23 41 39 23 22 31 38 34 38 43 50 59 64 63 65 62 57 55 53 52 47 47 46 46 44 45 45 49 50 44
20 13 7 10 13 17 21 9 14 24 24 36 44 46 41 14 9 30 36 35 39 41 30 27 27 35 56 59 58 69 67 63 60 62 58 56 53 51 49 48 47 48 49 47
26 20 12 9 9 16 7 5 5 6 9 30 30 42 37 19 17 24 24 37 27 18 13 17 24 24 34 52 54 66 76 73 71 71 67 63 59 55 53 52 50 50 49 47
9 9 25 17 9 9 23 20 11 12 10 58 43 41 22 18 19 13 28 23 15 8 7 7 11 15 20 39 53 59 76 87 71 71 71 69 66 61 56 54 54 53 52 52
8 8 7 11 12 16 58 12 10 22 45 56 56 39 18 10 14 14 10 9 9 12 15 16 13 10 15 24 46 58 71 79 77 76 78 75 73 70 66 62 60 59 59 58
2 5 8 11 9 7 21 26 29 34 33 60 59 57 19 10 13 11 3 5 8 6 7 13 15 14 12 18 32 50 56 67 84 85 83 84 80 77 73 72 71 70 68 69
5 4 8 16 6 30 11 42 54 64 63 79 69 56 41 39 31 14 8 8 9 9 9 11 11 14 12 13 22 31 42 53 72 90 91 90 92 87 82 80 79 79 79 79
16 17 8 20 24 23 2 47 51 66 70 83 74 63 46 37 32 25 14 10 9 9 12 13 14 12 12 14 14 21 31 43 56 67 88 97 98 98 95 92 90 91 90 88
11 9 8 10 19 7 27 46 42 51 53 61 65 66 54 42 38 33 23 21 19 17 17 18 18 19 19 20 19 24 28 36 46 57 67 84 98 105 106 105 101 97 96 96
Wind_Direction_500mb
178 212 215 214 213 255 149 245 267 260 134 280 267 280 282 281 264 260 260 246 234 223 218 220 229 243 257 286 309 321 326 326 338 341 343 351 2 1 355 330 332 339 293 208
174 235 231 103 165 182 202 262 266 278 226 280 301 293 291 299 267 253 261 245 235 216 206 210 219 230 246 285 313 325 326 330 344 351 1 1 5 6 3 7 9 7 91 159
218 33 152 160 168 190 219 226 230 271 314 225 307 281 306 155 274 257 248 254 229 206 194 200 205 214 239 287 314 329 334 337 347 6 9 14 20 19 29 27 25 40 93 125
240 154 163 183 206 194 236 203 204 263 321 298 4 289 302 317 294 251 240 229 196 187 185 193 195 203 229 280 309 329 339 339 354 25 11 17 35 39 42 49 53 66 94 121
182 177 179 198 215 188 170 143 140 132 278 312 167 243 270 329 287 231 196 166 158 167 173 180 185 199 218 267 303 323 336 345 8 42 20 36 46 48 37 59 72 68 104 114
97 279 211 188 81 37 139 114 93 123 234 248 86 254 280 235 248 194 157 155 155 160 168 175 183 196 214 253 304 322 328 327 22 49 36 45 79 77 62 69 100 90 108 129
158 204 176 166 119 101 182 176 246 239 201 259 125 218 258 262 240 259 177 169 164 167 174 180 187 196 212 241 292 310 328 327 60 65 70 54 79 110 76 85 102 119 130 123
195 225 179 174 221 185 184 236 218 248 231 32 131 231 251 206 222 171 129 180 176 181 186 188 191 198 210 226 237 262 326 262 159 97 105 100 85 109 110 97 115 120 136 151
183 221 104 169 156 189 160 212 21 100 82 282 221 257 271 219 221 208 210 186 195 196 197 197 197 202 209 216 217 221 287 240 201 185 147 150 137 103 130 134 127 131 136 141
193 158 240 147 153 103 231 148 144 225 215 233 211 273 248 202 211 205 209 209 202 201 203 204 204 205 208 211 215 214 234 242 210 199 184 159 170 143 128 134 146 151 144 154
153 215 136 165 212 181 159 192 214 246 227 226 259 237 211 207 191 216 211 208 204 203 205 207 208 207 209 210 213 211 202 68 194 193 189 173 177 169 163 148 156 162 167 162
178 128 165 196 27 289 229 199 194 209 193 232 21 274 155 241 220 228 214 201 203 209 207 209 210 210 213 211 212 207 200 181 175 166 175 183 179 184 167 167 167 175 170 183
179 192 133 130 222 201 218 203 212 124 83 200 181 232 143 217 222 214 193 202 205 205 206 210 212 213 215 214 211 208 199 197 181 179 189 190 180 178 173 178 174 171 179 184
163 192 228 216 150 146 194 200 199 202 205 196 224 257 228 238 227 199 209 211 214 212 210 213 216 218 217 217 214 210 202 197 189 179 184 201 201 195 196 181 183 187 196 196
207 244 220 250 288 195 217 200 197 208 212 211 214 223 239 215 197 207 222 207 209 218 217 218 222 225 221 218 215 211 204 199 196 189 199 198 181 176 172 171 180 170 166 162
200 244 40 271 200 218 259 232 211 218 224 239 256 261 239 255 259 244 235 221 218 220 223 227 232 231 230 224 219 214 210 202 200 199 201 200 189 176 168 166 167 162 164 167
173 177 117 254 16 176 274 229 200 203 216 217 226 237 225 257 235 243 224 224 227 219 243 244 249 244 239 234 226 218 213 205 201 198 199 195 192 182 176 175 175 173 166 162
170 153 167 143 129 219 266 345 213 207 207 215 239 247 238 237 237 249 242 228 230 245 263 264 256 250 247 243 232 222 214 210 204 200 197 192 186 181 176 176 175 172 167 164
186 175 184 194 211 318 292 195 173 185 243 219 227 244 245 218 237 254 229 230 252 262 250 256 266 260 243 243 238 226 216 213 207 202 198 194 189 187 185 183 182 181 182 180
195 199 202 168 206 215 352 11 260 182 267 17 257 245 258 166 248 259 239 233 205 212 226 243 260 270 248 228 230 225 218 216 212 206 201 199 196 196 195 194 195 195 195 195
191 201 208 212 218 279 358 342 321 190 332 328 327 299 245 201 228 273 178 172 175 191 228 246 261 270 259 232 225 223 219 219 217 212 207 205 204 204 203 206 205 206 207 207
355 305 193 206 206 229 360 29 25 325 325 329 340 341 294 215 142 143 183 223 258 272 269 270 269 267 248 232 225 226 225 223 219 219 215 212 211 210 210 212 213 213 214 215
164 46 309 338 57 357 41 62 8 4 355 351 346 337 8 52 14 344 315 321 321 321 294 282 272 263 261 240 233 232 233 226 221 222 221 218 217 217 217 218 218 219 219 219
44 67 341 317 145 334 293 12 6 0 353 347 351 351 346 334 326 328 327 336 338 344 343 345 300 273 269 249 242 241 235 233 230 227 225 225 223 223 223 224 225 226 226 225
281 317 277 282 277 306 352 0 347 342 341 343 347 356 355 352 360 354 342 334 327 313 309 320 330 311 278 270 256 244 234 229 230 233 231 230 230 229 230 231 232 231 233 233
210 235 223 277 358 307 312 325 328 336 339 341 344 345 355 348 342 347 349 333 319 309 306 303 302 297 293 285 272 262 246 236 233 232 233 233 234 235 236 237 239 239 239 240
Wind_Speed_850mb
8 14 19 28 23 4 2 5 16 10 0 10 23 39 47 46 44 45 47 44 44 37 30 35 31 27 21 23 29 38 44 34 33 36 41 31 29 31 30 25 24 23 9 9
8 23 18 9 12 8 6 9 13 12 3 7 25 50 46 20 13 17 19 25 34 36 36 38 32 26 18 20 26 34 34 29 31 38 32 31 32 31 29 25 21 16 1 9
20 2 15 11 11 13 9 10 5 10 15 5 24 18 10 2 7 12 14 12 13 31 40 42 34 24 16 16 22 28 30 25 28 26 29 31 30 32 28 28 22 10 9 14
16 8 12 13 12 16 10 10 6 3 8 8 12 13 14 6 17 11 11 8 8 22 35 43 35 24 14 13 17 22 27 22 18 19 24 29 29 34 31 30 26 14 16 20
9 19 16 12 8 17 1 8 6 2 1 8 4 7 14 4 8 5 5 6 11 23 38 42 33 23 13 11 13 18 22 17 14 14 18 23 20 23 26 24 44 35 33 49
2 2 6 2 6 2 20 8 4 2 3 6 3 5 11 6 5 3 5 9 18 31 38 35 31 21 13 9 9 14 16 12 9 9 16 18 15 19 20 25 38 36 34 40
5 7 4 7 11 6 5 7 4 5 5 7 4 7 21 10 7 4 13 19 22 33 38 37 30 22 15 8 5 8 11 7 6 8 11 11 13 15 19 21 31 38 39 32
25 15 23 17 8 10 19 7 8 11 5 2 3 13 9 2 4 8 6 20 25 32 37 36 31 24 16 9 5 5 6 5 3 5 12 7 10 11 16 21 23 32 41 34
16 10 2 4 5 5 14 15 3 6 4 4 9 14 23 14 10 13 18 19 32 35 40 38 33 27 20 12 9 7 4 5 11 8 8 9 9 11 13 22 20 25 27 35
12 3 3 5 6 3 8 13 7 3 9 11 7 11 15 6 18 21 21 31 32 35 40 40 37 31 24 16 13 11 5 3 11 15 13 12 11 13 18 23 23 20 26 28
12 7 7 9 21 26 12 11 6 4 6 6 4 8 5 7 6 15 27 31 33 39 45 43 39 34 28 21 16 16 11 1 6 11 21 16 18 14 19 25 26 26 23 25
15 6 11 12 1 6 8 16 19 10 11 5 1 9 5 6 3 5 18 25 29 35 43 42 41 38 33 26 21 19 19 9 4 14 19 19 20 19 24 29 30 30 29 32
17 10 8 1 4 4 17 22 17 5 2 15 11 8 2 6 8 9 8 26 30 37 42 45 46 45 40 34 28 23 25 20 11 16 20 21 24 26 25 28 28 30 29 31
13 8 12 18 4 11 15 35 39 33 10 13 21 12 7 7 9 11 15 20 28 38 47 51 51 50 45 41 36 29 29 31 24 19 18 20 23 26 27 30 33 33 32 30
5 8 9 15 1 7 8 19 43 45 44 27 18 37 37 20 19 21 13 24 29 41 48 53 55 53 52 50 47 39 37 37 35 32 28 20 20 22 27 35 33 35 33 36
3 4 2 6 7 8 9 22 34 46 42 42 25 30 23 38 27 30 27 32 34 35 44 49 54 58 59 60 55 48 43 43 42 40 36 30 30 29 32 36 35 34 34 34
16 10 4 6 3 2 18 38 31 23 29 45 40 50 14 20 24 29 31 36 40 39 36 40 50 61 65 65 60 58 50 48 47 45 41 39 38 38 39 41 41 37 37 40
11 11 5 2 2 14 9 7 29 44 33 43 31 34 23 41 39 23 22 31 38 34 38 43 50 59 64 63 65 62 57 55 53 52 47 47 46 46 44 45 45 49 50 44
20 13 7 10 13 17 21 9 14 24 24 36 44 46 41 14 9 30 36 35 39 41 30 27 27 35 56 59 58 69 67 63 60 62 58 56 53 51 49 48 47 48 49 47
26 20 12 9 9 16 7 5 5 6 9 30 30 42 37 19 17 24 24 37 27 18 13 17 24 24 34 52 54 66 76 73 71 71 67 63 59 55 53 52 50 50 49 47
9 9 25 17 9 9 23 20 11 12 10 58 43 41 22 18 19 13 28 23 15 8 7 7 11 15 20 39 53 59 76 87 71 71 71 69 66 61 56 54 54 53 52 52
8 8 7 11 12 16 58 12 10 22 45 56 56 39 18 10 14 14 10 9 9 12 15 16 13 10 15 24 46 58 71 79 77 76 78 75 73 70 66 62 60 59 59 58
2 5 8 11 9 7 21 26 29 34 33 60 59 57 19 10 13 11 3 5 8 6 7 13 15 14 12 18 32 50 56 67 84 85 83 84 80 77 73 72 71 70 68 69
5 4 8 16 6 30 11 42 54 64 63 79 69 56 41 39 31 14 8 8 9 9 9 11 11 14 12 13 22 31 42 53 72 90 91 90 92 87 82 80 79 79 79 79
16 17 8 20 24 23 2 47 51 66 70 83 74 63 46 37 32 25 14 10 9 9 12 13 14 12 12 14 14 21 31 43 56 67 88 97 98 98 95 92 90 91 90 88
11 9 8 10 19 7 27 46 42 51 53 61 65 66 54 42 38 33 23 21 19 17 17 18 18 19 19 20 19 24 28 36 46 57 67 84 98 105 106 105 101 97 96 96
Wind_Direction_850mb
178 212 215 214 213 255 149 245 267 260 134 280 267 280 282 281 264 260 260 246 234 223 218 220 229 243 257 286 309 321 326 326 338 341 343 351 2 1 355 330 332 339 293 208
174 235 231 103 165 182 202 262 266 278 226 280 301 293 291 299 267 253 261 245 235 216 206 210 219 230 246 285 313 325 326 330 344 351 1 1 5 6 3 7 9 7 91 159
218 33 152 160 168 190 219 226 230 271 314 225 307 281 306 155 274 257 248 254 229 206 194 200 205 214 239 287 314 329 334 337 347 6 9 14 20 19 29 27 25 40 93 125
240 154 163 183 206 194 236 203 204 263 321 298 4 289 302 317 294 251 240 229 196 187 185 193 195 203 229 280 309 329 339 339 354 25 11 17 35 39 42 49 53 66 94 121
182 177 179 198 215 188 170 143 140 132 278 312 167 243 270 329 287 231 196 166 158 167 173 180 185 199 218 267 303 323 336 345 8 42 20 36 46 48 37 59 72 68 104 114
97 279 211 188 81 37 139 114 93 123 234 248 86 254 280 235 248 194 157 155 155 160 168 175 183 196 214 253 304 322 328 327 22 49 36 45 79 77 62 69 100 90 108 129
158 204 176 166 119 101 182 176 246 239 201 259 125 218 258 262 240 259 177 169 164 167 174 180 187 196 212 241 292 310 328 327 60 65 70 54 79 110 76 85 102 119 130 123
195 225 179 174 221 185 184 236 218 248 231 32 131 231 251 206 222 171 129 180 176 181 186 188 191 198 210 226 237 262 326 262 159 97 105 100 85 109 110 97 115 120 136 151
183 221 104 169 156 189 160 212 21 100 82 282 221 257 271 219 221 208 210 186 195 196 197 197 197 202 209 216 217 221 287 240 201 185 147 150 137 103 130 134 127 131 136 141
193 158 240 147 153 103 231 148 144 225 215 233 211 273 248 202 211 205 209 209 202 201 203 204 204 205 208 211 215 214 234 242 210 199 184 159 170 143 128 134 146 151 144 154
153 215 136 165 212 181 159 192 214 246 227 226 259 237 211 207 191 216 211 208 204 203 205 207 208 207 209 210 213 211 202 68 194 193 189 173 177 169 163 148 156 162 167 162
178 128 165 196 27 289 229 199 194 209 193 232 21 274 155 241 220 228 214 201 203 209 207 209 210 210 213 211 212 207 200 181 175 166 175 183 179 184 167 167 167 175 170 183
179 192 133 130 222 201 218 203 212 124 83 200 181 232 143 217 222 214 193 202 205 205 206 210 212 213 215 214 211 208 199 197 181 179 189 190 180 178 173 178 174 171 179 184
163 192 228 216 150 146 194 200 199 202 205 196 224 257 228 238 227 199 209 211 214 212 210 213 216 218 217 217 214 210 202 197 189 179 184 201 201 195 196 181 183 187 196 196
207 244 220 250 288 195 217 200 197 208 212 211 214 223 239 215 197 207 222 207 209 218 217 218 222 225 221 218 215 211 204 199 196 189 199 198 181 176 172 171 180 170 166 162
200 244 40 271 200 218 259 232 211 218 224 239 256 261 239 255 259 244 235 221 218 220 223 227 232 231 230 224 219 214 210 202 200 199 201 200 189 176 168 166 167 162 164 167
173 177 117 254 16 176 274 229 200 203 216 217 226 237 225 257 235 243 224 224 227 219 243 244 249 244 239 234 226 218 213 205 201 198 199 195 192 182 176 175 175 173 166 162
170 153 167 143 129 219 266 345 213 207 207 215 239 247 238 237 237 249 242 228 230 245 263 264 256 250 247 243 232 222 214 210 204 200 197 192 186 181 176 176 175 172 167 164
186 175 184 194 211 318 292 195 173 185 243 219 227 244 245 218 237 254 229 230 252 262 250 256 266 260 243 243 238 226 216 213 207 202 198 194 189 187 185 183 182 181 182 180
195 199 202 168 206 215 352 11 260 182 267 17 257 245 258 166 248 259 239 233 205 212 226 243 260 270 248 228 230 225 218 216 212 206 201 199 196 196 195 194 195 195 195 195
191 201 208 212 218 279 358 342 321 190 332 328 327 299 245 201 228 273 178 172 175 191 228 246 261 270 259 232 225 223 219 219 217 212 207 205 204 204 203 206 205 206 207 207
355 305 193 206 206 229 360 29 25 325 325 329 340 341 294 215 142 143 183 223 258 272 269 270 269 267 248 232 225 226 225 223 219 219 215 212 211 210 210 212 213 213 214 215
164 46 309 338 57 357 41 62 8 4 355 351 346 337 8 52 14 344 315 321 321 321 294 282 272 263 261 240 233 232 233 226 221 222 221 218 217 217 217 218 218 219 219 219
44 67 341 317 145 334 293 12 6 0 353 347 351 351 346 334 326 328 327 336 338 344 343 345 300 273 269 249 242 241 235 233 230 227 225 225 223 223 223 224 225 226 226 225
281 317 277 282 277 306 352 0 347 342 341 343 347 356 355 352 360 354 342 334 327 313 309 320 330 311 278 270 256 244 234 229 230 233 231 230 230 229 230 231 232 231 233 233
210 235 223 277 358 307 312 325 328 336 339 341 344 345 355 348 342 347 349 333 319 309 306 303 302 297 293 285 272 262 246 236 233 232 233 233 234 235 236 237 239 239 239 240